Tracking 28790 objects as of 19-Apr-2024
HD Live streaming from Space Station
objects crossing your sky now

ATLAS 28E DEB

Track ATLAS 28E DEB now!
10-day predictions


NORAD ID: 20575
Int'l Code: 1990-031G
Perigee: 578.6 km
Apogee: 622.8 km
Inclination: 90.4 °
Period: 96.6 minutes
Semi major axis: 6971 km
RCS: Unknown
Launch date: April 11, 1990
Source: United States (US)
Launch site: AIR FORCE WESTERN TEST RANGE (AFWTR)

Note: This is SATELLITE DEBRIS
Your satellite tracking list
Your tracking list is empty




NASA's NSSDC Master Catalog

Two Line Element Set (TLE):
1 20575U 90031G   24108.36821615  .00012743  00000-0  12622-2 0  9991
2 20575  90.3500 262.5315 0031686  58.6296 301.8027 14.91397989276761
Source of the keplerian elements: AFSPC